User: anonymous   Login
Location: North Mitre
(40.7833°S, 175.4667°E)
Time: 20:51:55
(UTC+00:00)
Language:

BREEZE-M DEB (TANK) - Orbit

View from above orbital plane
View from above orbital plane
View from above satellite
View from above satellite

Ground track
Ground track

The orbit data is extracted from the following two-line orbital elements,

1 29528U 06051C   24275.39041035  .00000079  00000-0  56515-4 0  9995
2 29528  51.0980 145.0651 6052199 295.8592 326.7245  3.64284972238158
Epoch (UTC): 01 October 2024 09:22:11
Eccentricity: 0.6052199
inclination: 51.0980°
perigee height: 665 km
apogee height: 22262 km
right ascension of ascending node: 145.0651°
argument of perigee: 295.8592°
revolutions per day: 3.64284972
mean anomaly at epoch: 326.7245°
orbit number at epoch: 23815

The dashed part of the orbit path shows where the satellite is in the earth's shadow,  

DLR